{"data":{"norad_id":66710,"epoch":"2026-05-25T03:34:55.521408Z","epoch_age_seconds":55451,"freshness":"FRESH","line1":"1 66710U 25276AW  26145.14925372  .00006091  00000+0  28807-3 0  9996","line2":"2 66710  97.4191 219.0582 0003935 106.2388 253.9280 15.19734008 26924","mean_motion":15.19734008,"eccentricity":0.0003935,"inclination_deg":97.4191,"raan_deg":219.0582,"arg_perigee_deg":106.2388,"mean_anomaly_deg":253.928,"bstar":0.00028807,"rev_number":2692,"period_min":94.753423455666,"perigee_km":503.93467618417,"apogee_km":509.35299870324,"semimajor_km":6884.7808374437,"source":"CELESTRAK","updated_at":"2026-05-25T13:38:13.346706Z"}}